Time,TemperatureF,DewpointF,PressureIn,WindDirection,WindDirectionDegrees,WindSpeedMPH,WindSpeedGustMPH,Humidity,HourlyPrecipIn,Conditions,Clouds,dailyrainin,SoftwareType,DateUTC
2013-01-07 00:02:00,39.0,36.0,30.21,North,350,0.0,0.0,88,0.00,,,0.10,,2013-01-07 08:02:00,
2013-01-07 00:11:00,39.0,36.0,30.21,North,350,0.0,0.0,88,0.00,,,0.10,,2013-01-07 08:11:00,
2013-01-07 00:22:00,38.0,35.0,30.21,North,351,0.0,0.0,88,0.00,,,0.10,,2013-01-07 08:22:00,
2013-01-07 00:32:00,38.0,35.0,30.21,North,351,0.0,0.0,88,0.00,,,0.09,,2013-01-07 08:32:00,
2013-01-07 00:42:00,38.0,35.0,30.21,North,351,0.0,0.0,88,0.00,,,0.09,,2013-01-07 08:42:00,
2013-01-07 00:52:00,38.0,35.0,30.21,North,351,0.0,0.0,88,0.00,,,0.09,,2013-01-07 08:52:00,
2013-01-07 01:02:00,37.0,34.0,30.20,North,350,0.0,0.0,88,0.00,,,0.09,,2013-01-07 09:02:00,
2013-01-07 01:12:00,37.0,34.0,30.20,North,350,0.0,0.0,88,0.00,,,0.09,,2013-01-07 09:12:00,
2013-01-07 01:22:00,37.0,34.0,30.21,North,350,0.0,0.0,88,0.00,,,0.08,,2013-01-07 09:22:00,
2013-01-07 01:32:00,37.0,34.0,30.21,North,350,0.0,0.0,88,0.00,,,0.08,,2013-01-07 09:32:00,
2013-01-07 01:42:00,37.0,34.0,30.21,North,350,0.0,0.0,88,0.00,,,0.08,,2013-01-07 09:42:00,
2013-01-07 01:52:00,37.0,34.0,30.21,North,350,0.0,0.0,88,0.00,,,0.08,,2013-01-07 09:52:00,
2013-01-07 02:02:00,37.0,34.0,30.21,North,351,0.0,0.0,88,0.00,,,0.07,,2013-01-07 10:02:00,
2013-01-07 02:11:00,36.0,33.0,30.21,North,351,0.0,0.0,88,0.00,,,0.07,,2013-01-07 10:11:00,
2013-01-07 02:22:00,36.0,33.0,30.21,North,351,0.0,0.0,88,0.00,,,0.07,,2013-01-07 10:22:00,
2013-01-07 02:32:00,36.0,33.0,30.21,North,351,0.0,0.0,88,0.00,,,0.07,,2013-01-07 10:32:00,
2013-01-07 02:42:00,36.0,33.0,30.21,North,351,0.0,0.0,88,0.00,,,0.07,,2013-01-07 10:42:00,
2013-01-07 02:52:00,36.0,33.0,30.21,North,350,0.0,0.0,88,0.00,,,0.07,,2013-01-07 10:52:00,
2013-01-07 03:01:00,36.0,33.0,30.22,North,351,0.0,0.0,88,0.00,,,0.07,,2013-01-07 11:01:00,
2013-01-07 03:12:00,36.0,33.0,30.22,North,351,0.0,0.0,88,0.00,,,0.07,,2013-01-07 11:12:00,
2013-01-07 03:22:00,36.0,33.0,30.23,North,351,0.0,0.0,88,0.00,,,0.07,,2013-01-07 11:22:00,
2013-01-07 03:32:00,36.0,33.0,30.23,North,351,0.0,0.0,88,0.00,,,0.07,,2013-01-07 11:32:00,
2013-01-07 03:42:00,36.0,33.0,30.23,North,351,0.0,0.0,88,0.00,,,0.07,,2013-01-07 11:42:00,
2013-01-07 03:53:00,35.0,32.0,30.23,North,350,0.0,0.0,88,0.00,,,0.07,,2013-01-07 11:53:00,
2013-01-07 04:02:00,35.0,32.0,30.23,North,351,0.0,0.0,89,0.00,,,0.07,,2013-01-07 12:02:00,
2013-01-07 04:12:00,35.0,32.0,30.23,North,350,0.0,0.0,89,0.00,,,0.07,,2013-01-07 12:12:00,
2013-01-07 04:22:00,35.0,32.0,30.23,North,350,0.0,0.0,89,0.00,,,0.07,,2013-01-07 12:22:00,
2013-01-07 04:32:00,35.0,32.0,30.22,North,350,0.0,0.0,89,0.00,,,0.07,,2013-01-07 12:32:00,
2013-01-07 04:42:00,35.0,32.0,30.22,North,350,0.0,0.0,89,0.00,,,0.07,,2013-01-07 12:42:00,
2013-01-07 04:52:00,35.0,32.0,30.23,North,350,0.0,0.0,89,0.00,,,0.07,,2013-01-07 12:52:00,
2013-01-07 05:02:00,35.0,32.0,30.24,North,350,0.0,0.0,89,0.00,,,0.07,,2013-01-07 13:02:00,
2013-01-07 05:11:00,35.0,32.0,30.24,North,350,0.0,0.0,89,0.00,,,0.07,,2013-01-07 13:11:00,
2013-01-07 05:22:00,35.0,32.0,30.24,North,350,0.0,0.0,89,0.00,,,0.07,,2013-01-07 13:22:00,
2013-01-07 05:32:00,35.0,32.0,30.23,North,351,0.0,0.0,89,0.00,,,0.07,,2013-01-07 13:32:00,
2013-01-07 05:42:00,35.0,32.0,30.23,North,351,0.0,0.0,89,0.00,,,0.07,,2013-01-07 13:42:00,
2013-01-07 05:52:00,35.0,32.0,30.23,North,351,0.0,0.0,89,0.00,,,0.07,,2013-01-07 13:52:00,
2013-01-07 06:03:00,34.0,31.0,30.23,North,351,0.0,0.0,89,0.00,,,0.05,,2013-01-07 14:03:00,
2013-01-07 06:22:00,34.0,31.0,30.24,North,350,0.0,0.0,89,0.00,,,0.04,,2013-01-07 14:22:00,
2013-01-07 06:32:00,34.0,31.0,30.23,North,351,0.0,0.0,89,0.00,,,0.04,,2013-01-07 14:32:00,
2013-01-07 06:42:00,34.0,31.0,30.23,North,351,0.0,0.0,89,0.00,,,0.04,,2013-01-07 14:42:00,
2013-01-07 06:53:00,34.0,31.0,30.24,North,351,0.0,0.0,89,0.00,,,0.03,,2013-01-07 14:53:00,
2013-01-07 07:02:00,34.0,31.0,30.24,North,350,0.0,0.0,89,0.00,,,0.01,,2013-01-07 15:02:00,
2013-01-07 07:12:00,34.0,31.0,30.24,North,350,0.0,0.0,89,0.00,,,0.01,,2013-01-07 15:12:00,
2013-01-07 07:22:00,34.0,31.0,30.25,North,350,0.0,0.0,89,0.00,,,0.00,,2013-01-07 15:22:00,
2013-01-07 07:33:00,34.0,31.0,30.25,North,351,0.0,0.0,89,0.00,,,0.00,,2013-01-07 15:33:00,
2013-01-07 07:42:00,34.0,31.0,30.25,North,351,0.0,0.0,89,0.00,,,0.00,,2013-01-07 15:42:00,
2013-01-07 07:52:00,34.0,31.0,30.26,North,350,0.0,0.0,89,0.00,,,0.00,,2013-01-07 15:52:00,
2013-01-07 08:02:00,34.0,31.0,30.26,North,351,0.0,0.0,90,0.00,,,0.00,,2013-01-07 16:02:00,
2013-01-07 08:12:00,34.0,31.0,30.26,North,351,0.0,0.0,90,0.00,,,0.00,,2013-01-07 16:12:00,
2013-01-07 08:22:00,35.0,32.0,30.25,North,350,0.0,0.0,90,0.00,,,0.00,,2013-01-07 16:22:00,
2013-01-07 08:33:00,35.0,32.0,30.25,North,351,0.0,0.0,90,0.00,,,0.00,,2013-01-07 16:33:00,
2013-01-07 08:42:00,35.0,32.0,30.25,North,351,0.0,0.0,90,0.00,,,0.00,,2013-01-07 16:42:00,
2013-01-07 08:52:00,35.0,32.0,30.25,North,351,0.0,0.0,90,0.00,,,0.00,,2013-01-07 16:52:00,
2013-01-07 09:02:00,36.0,33.0,30.25,North,351,0.0,0.0,90,0.00,,,0.00,,2013-01-07 17:02:00,
2013-01-07 09:12:00,36.0,33.0,30.25,North,351,0.0,0.0,90,0.00,,,0.00,,2013-01-07 17:12:00,
2013-01-07 09:22:00,38.0,36.0,30.25,North,350,0.0,0.0,91,0.00,,,0.00,,2013-01-07 17:22:00,
2013-01-07 09:32:00,39.0,37.0,30.27,North,351,0.0,0.0,91,0.00,,,0.00,,2013-01-07 17:32:00,
2013-01-07 09:42:00,39.0,37.0,30.27,North,351,0.0,0.0,91,0.00,,,0.00,,2013-01-07 17:42:00,
2013-01-07 09:52:00,40.0,38.0,30.27,North,351,0.0,0.0,91,0.00,,,0.00,,2013-01-07 17:52:00,
2013-01-07 10:02:00,42.0,40.0,30.28,North,350,0.0,0.0,91,0.00,,,0.00,,2013-01-07 18:02:00,
2013-01-07 10:12:00,42.0,40.0,30.28,North,350,0.0,0.0,91,0.00,,,0.00,,2013-01-07 18:12:00,
2013-01-07 10:23:00,43.0,41.0,30.28,North,350,0.0,0.0,91,0.00,,,0.00,,2013-01-07 18:23:00,
2013-01-07 10:32:00,44.0,42.0,30.27,North,351,0.0,0.0,91,0.00,,,0.00,,2013-01-07 18:32:00,
2013-01-07 10:43:00,44.0,42.0,30.27,North,351,0.0,0.0,91,0.00,,,0.00,,2013-01-07 18:43:00,
2013-01-07 10:52:00,48.0,45.0,30.27,NE,56,0.0,1.0,90,0.00,,,0.00,,2013-01-07 18:52:00,
2013-01-07 11:02:00,50.0,45.0,30.29,NE,56,0.0,0.0,84,0.00,,,0.00,,2013-01-07 19:02:00,
2013-01-07 11:12:00,50.0,45.0,30.29,NE,56,0.0,0.0,84,0.00,,,0.00,,2013-01-07 19:12:00,
2013-01-07 11:22:00,50.0,45.0,30.28,NE,55,0.0,0.0,83,0.00,,,0.00,,2013-01-07 19:22:00,
2013-01-07 11:33:00,51.0,45.0,30.27,NE,55,0.0,2.0,81,0.00,,,0.00,,2013-01-07 19:33:00,
2013-01-07 11:42:00,51.0,45.0,30.27,NE,55,0.0,2.0,81,0.00,,,0.00,,2013-01-07 19:42:00,
2013-01-07 11:53:00,52.0,45.0,30.24,NE,55,0.0,2.0,78,0.00,,,0.00,,2013-01-07 19:53:00,
2013-01-07 12:02:00,52.0,45.0,30.24,East,85,0.0,0.0,78,0.00,,,0.00,,2013-01-07 20:02:00,
2013-01-07 12:12:00,52.0,45.0,30.24,East,85,0.0,0.0,78,0.00,,,0.00,,2013-01-07 20:12:00,
2013-01-07 12:22:00,54.0,46.0,30.23,East,90,0.0,0.0,73,0.00,,,0.00,,2013-01-07 20:22:00,
2013-01-07 12:32:00,54.0,45.0,30.23,East,90,0.0,1.0,72,0.00,,,0.00,,2013-01-07 20:32:00,
2013-01-07 12:42:00,54.0,45.0,30.23,East,90,0.0,1.0,72,0.00,,,0.00,,2013-01-07 20:42:00,
2013-01-07 12:53:00,56.0,46.0,30.22,NE,40,0.0,3.0,69,0.00,,,0.00,,2013-01-07 20:53:00,
2013-01-07 13:02:00,56.0,47.0,30.22,East,90,0.0,4.0,72,0.00,,,0.00,,2013-01-07 21:02:00,
2013-01-07 13:12:00,56.0,47.0,30.22,East,90,0.0,4.0,72,0.00,,,0.00,,2013-01-07 21:12:00,
2013-01-07 13:22:00,56.0,46.0,30.22,ENE,58,0.0,3.0,69,0.00,,,0.00,,2013-01-07 21:22:00,
2013-01-07 13:32:00,55.0,45.0,30.22,NNE,17,1.0,4.0,70,0.00,,,0.00,,2013-01-07 21:32:00,
2013-01-07 13:42:00,55.0,45.0,30.22,NNE,17,1.0,4.0,70,0.00,,,0.00,,2013-01-07 21:42:00,
2013-01-07 13:53:00,56.0,46.0,30.20,NE,48,0.0,4.0,70,0.00,,,0.00,,2013-01-07 21:53:00,
2013-01-07 14:02:00,56.0,46.0,30.21,NNE,30,0.0,4.0,69,0.00,,,0.00,,2013-01-07 22:02:00,
2013-01-07 14:11:00,56.0,46.0,30.21,NNE,30,0.0,4.0,69,0.00,,,0.00,,2013-01-07 22:11:00,
2013-01-07 14:22:00,56.0,47.0,30.20,East,94,0.0,3.0,71,0.00,,,0.00,,2013-01-07 22:22:00,
2013-01-07 14:33:00,56.0,46.0,30.20,ENE,78,0.0,1.0,70,0.00,,,0.00,,2013-01-07 22:33:00,
2013-01-07 14:42:00,56.0,46.0,30.20,ENE,78,0.0,1.0,70,0.00,,,0.00,,2013-01-07 22:42:00,
2013-01-07 14:53:00,56.0,46.0,30.20,NE,45,0.0,3.0,70,0.00,,,0.00,,2013-01-07 22:53:00,
2013-01-07 15:02:00,56.0,46.0,30.20,NE,45,0.0,2.0,70,0.00,,,0.00,,2013-01-07 23:02:00,
2013-01-07 15:11:00,56.0,46.0,30.20,NE,45,0.0,2.0,70,0.00,,,0.00,,2013-01-07 23:11:00,
2013-01-07 15:22:00,57.0,47.0,30.19,NE,45,0.0,0.0,70,0.00,,,0.00,,2013-01-07 23:22:00,
2013-01-07 15:32:00,57.0,47.0,30.19,NE,45,0.0,0.0,70,0.00,,,0.00,,2013-01-07 23:32:00,
2013-01-07 15:42:00,57.0,47.0,30.19,NE,45,0.0,0.0,70,0.00,,,0.00,,2013-01-07 23:42:00,
2013-01-07 15:53:00,57.0,48.0,30.19,WNW,284,0.0,2.0,71,0.00,,,0.00,,2013-01-07 23:53:00,
2013-01-07 16:02:00,57.0,47.0,30.19,WNW,284,0.0,0.0,70,0.00,,,0.00,,2013-01-08 00:02:00,
2013-01-07 16:12:00,57.0,47.0,30.19,WNW,284,0.0,0.0,70,0.00,,,0.00,,2013-01-08 00:12:00,
2013-01-07 16:22:00,57.0,47.0,30.19,WNW,286,0.0,0.0,70,0.00,,,0.00,,2013-01-08 00:22:00,
2013-01-07 16:32:00,57.0,47.0,30.18,WNW,286,0.0,0.0,70,0.00,,,0.00,,2013-01-08 00:32:00,
2013-01-07 16:42:00,57.0,47.0,30.18,WNW,286,0.0,0.0,70,0.00,,,0.00,,2013-01-08 00:42:00,
2013-01-07 16:52:00,57.0,47.0,30.19,WNW,286,0.0,0.0,70,0.00,,,0.00,,2013-01-08 00:52:00,
2013-01-07 17:02:00,56.0,47.0,30.19,WNW,286,0.0,0.0,71,0.00,,,0.00,,2013-01-08 01:02:00,
2013-01-07 17:11:00,56.0,47.0,30.19,WNW,286,0.0,0.0,71,0.00,,,0.00,,2013-01-08 01:11:00,
2013-01-07 17:22:00,56.0,47.0,30.19,WNW,287,0.0,0.0,72,0.00,,,0.00,,2013-01-08 01:22:00,
2013-01-07 17:32:00,55.0,46.0,30.19,WNW,287,0.0,0.0,72,0.00,,,0.00,,2013-01-08 01:32:00,
2013-01-07 17:42:00,55.0,46.0,30.19,WNW,287,0.0,0.0,72,0.00,,,0.00,,2013-01-08 01:42:00,
2013-01-07 17:52:00,54.0,46.0,30.19,WNW,287,0.0,0.0,73,0.00,,,0.00,,2013-01-08 01:52:00,
2013-01-07 18:02:00,54.0,46.0,30.19,WNW,287,0.0,0.0,74,0.00,,,0.00,,2013-01-08 02:02:00,
2013-01-07 18:11:00,52.0,45.0,30.19,WNW,287,0.0,0.0,77,0.00,,,0.00,,2013-01-08 02:11:00,
2013-01-07 18:12:00,54.0,46.0,30.19,WNW,287,0.0,0.0,74,0.00,,,0.00,,2013-01-08 02:12:00,
2013-01-07 18:22:00,53.0,46.0,30.19,WNW,287,0.0,0.0,76,0.00,,,0.00,,2013-01-08 02:22:00,
2013-01-07 18:32:00,52.0,45.0,30.19,WNW,287,0.0,0.0,77,0.00,,,0.00,,2013-01-08 02:32:00,
2013-01-07 18:42:00,52.0,45.0,30.19,WNW,287,0.0,0.0,77,0.00,,,0.00,,2013-01-08 02:42:00,
2013-01-07 18:53:00,52.0,45.0,30.19,WNW,287,0.0,0.0,77,0.00,,,0.00,,2013-01-08 02:53:00,
2013-01-07 19:02:00,52.0,45.0,30.19,WNW,287,0.0,0.0,77,0.00,,,0.00,,2013-01-08 03:02:00,
2013-01-07 21:33:00,46.0,41.0,30.20,WNW,287,0.0,0.0,84,0.00,,,0.00,,2013-01-08 05:33:00,
2013-01-07 21:43:00,46.0,41.0,30.20,WNW,287,0.0,0.0,84,0.00,,,0.00,,2013-01-08 05:43:00,
2013-01-07 21:53:00,46.0,41.0,30.21,WNW,287,0.0,0.0,84,0.00,,,0.00,,2013-01-08 05:53:00,
2013-01-07 22:02:00,45.0,40.0,30.20,WNW,287,0.0,0.0,84,0.00,,,0.00,,2013-01-08 06:02:00,
2013-01-07 22:11:00,45.0,40.0,30.20,WNW,287,0.0,0.0,84,0.00,,,0.00,,2013-01-08 06:11:00,
2013-01-07 22:22:00,45.0,40.0,30.20,WNW,287,0.0,0.0,84,0.00,,,0.00,,2013-01-08 06:22:00,
2013-01-07 22:32:00,45.0,41.0,30.20,WNW,287,0.0,0.0,85,0.00,,,0.00,,2013-01-08 06:32:00,
2013-01-07 22:42:00,45.0,41.0,30.20,WNW,287,0.0,0.0,85,0.00,,,0.00,,2013-01-08 06:42:00,
2013-01-07 22:52:00,44.0,40.0,30.20,WNW,287,0.0,0.0,85,0.00,,,0.00,,2013-01-08 06:52:00,
2013-01-07 23:02:00,44.0,40.0,30.20,WNW,287,0.0,0.0,85,0.00,,,0.00,,2013-01-08 07:02:00,
2013-01-07 23:11:00,44.0,40.0,30.20,WNW,287,0.0,0.0,85,0.00,,,0.00,,2013-01-08 07:11:00,
2013-01-07 23:22:00,44.0,40.0,30.20,WNW,287,0.0,0.0,85,0.00,,,0.00,,2013-01-08 07:22:00,
2013-01-07 23:32:00,44.0,40.0,30.20,WNW,287,0.0,0.0,86,0.00,,,0.00,,2013-01-08 07:32:00,
2013-01-07 23:42:00,44.0,40.0,30.20,WNW,287,0.0,0.0,86,0.00,,,0.00,,2013-01-08 07:42:00,
2013-01-07 23:52:00,44.0,40.0,30.21,WNW,287,0.0,0.0,86,0.00,,,0.00,,2013-01-08 07:52:00,